• In Deutschland
  • Länderverzeichnis
  • Für 7 Tage
  • Wassertemperatur
  • Satellitenkarten
  • Wetterkarte
  • Widgets
  • user-avatar
    Anmelden

    Stündliche Wetter Bregenz

    Heute, 20 September, Donnerstag

    Zeit Temperatur Niederschläge Wind Luftdruck Luftfeuchtigkeit
    00:00 +11°C° 0 mm 1 m/S 651 mmHg 81%
    01:00 +11°C° 0 mm 1 m/S 651 mmHg 80%
    02:00 +11°C° 0 mm 1 m/S 651 mmHg 79%
    03:00 +10°C° 0 mm 1 m/S 650 mmHg 78%
    04:00 +10°C° 0 mm 1 m/S 650 mmHg 77%
    05:00 +10°C° 0 mm 1 m/S 650 mmHg 75%
    06:00 +11°C° 0 mm 1 m/S 650 mmHg 74%
    07:00 +11°C° 0 mm 1 m/S 650 mmHg 73%
    08:00 +13°C° 0 mm 1 m/S 651 mmHg 66%
    09:00 +16°C° 0 mm 1 m/S 652 mmHg 58%
    10:00 +18°C° 0 mm 0 m/S 653 mmHg 51%
    11:00 +21°C° 0 mm 1 m/S 652 mmHg 49%
    12:00 +22°C° 0 mm 1 m/S 652 mmHg 47%
    13:00 +22°C° 0 mm 1 m/S 652 mmHg 45%
    14:00 +22°C° 0 mm 1 m/S 652 mmHg 48%
    15:00 +22°C° 0 mm 1 m/S 652 mmHg 50%
    16:00 +21°C° 0 mm 1 m/S 651 mmHg 53%
    17:00 +19°C° 0 mm 1 m/S 651 mmHg 63%
    18:00 +16°C° 0 mm 1 m/S 650 mmHg 72%
    19:00 +13°C° 0 mm 1 m/S 649 mmHg 82%
    20:00 +13°C° 0 mm 1 m/S 649 mmHg 82%
    21:00 +13°C° 0 mm 1 m/S 649 mmHg 81%
    22:00 +12°C° 0 mm 2 m/S 649 mmHg 81%
    23:00 +12°C° 0 mm 2 m/S 649 mmHg 81%

    Morgen, 21 September, Freitag

    Zeit Temperatur Niederschläge Wind Luftdruck Luftfeuchtigkeit
    00:00 +12°C° 0 mm 2 m/S 649 mmHg 82%
    01:00 +12°C° 0 mm 2 m/S 648 mmHg 82%
    02:00 +12°C° 0 mm 2 m/S 648 mmHg 83%
    03:00 +10°C° 0 mm 2 m/S 648 mmHg 83%
    04:00 +10°C° 0 mm 2 m/S 647 mmHg 84%
    05:00 +10°C° 0 mm 2 m/S 647 mmHg 83%
    06:00 +10°C° 0 mm 2 m/S 648 mmHg 83%
    07:00 +12°C° 0 mm 2 m/S 648 mmHg 82%
    08:00 +14°C° 0 mm 2 m/S 648 mmHg 72%
    09:00 +17°C° 0 mm 2 m/S 649 mmHg 63%
    10:00 +20°C° 0 mm 2 m/S 650 mmHg 53%
    11:00 +20°C° 0 mm 2 m/S 650 mmHg 51%
    12:00 +21°C° 0 mm 3 m/S 650 mmHg 50%
    13:00 +21°C° 0 mm 3 m/S 650 mmHg 48%
    14:00 +21°C° 0 mm 3 m/S 650 mmHg 51%
    15:00 +20°C° 0 mm 3 m/S 649 mmHg 55%
    16:00 +20°C° 0 mm 3 m/S 649 mmHg 58%
    17:00 +18°C° 0.2 mm 3 m/S 649 mmHg 67%
    18:00 +14°C° 0.2 mm 3 m/S 649 mmHg 77%
    19:00 +12°C° 0.2 mm 3 m/S 649 mmHg 86%
    20:00 +13°C° 0.3 mm 2 m/S 649 mmHg 89%
    21:00 +12°C° 0.3 mm 2 m/S 650 mmHg 93%
    22:00 +12°C° 0.3 mm 1 m/S 650 mmHg 96%
    23:00 +12°C° 0.2 mm 1 m/S 650 mmHg 96%

    übermorgen, 22 September, Samstag

    Zeit Temperatur Niederschläge Wind Luftdruck Luftfeuchtigkeit
    00:00 +11°C° 0.2 mm 1 m/S 650 mmHg 96%
    01:00 +11°C° 0.2 mm 1 m/S 650 mmHg 96%
    02:00 +10°C° 0.2 mm 1 m/S 650 mmHg 96%
    03:00 +10°C° 0.2 mm 1 m/S 650 mmHg 96%
    04:00 +10°C° 0.2 mm 1 m/S 650 mmHg 96%
    05:00 +9°C° 0.1 mm 1 m/S 650 mmHg 96%
    06:00 +9°C° 0.1 mm 1 m/S 650 mmHg 96%
    07:00 +9°C° 0.1 mm 1 m/S 650 mmHg 95%
    08:00 +9°C° 0 mm 1 m/S 650 mmHg 93%
    09:00 +10°C° 0 mm 1 m/S 651 mmHg 90%
    10:00 +10°C° 0 mm 1 m/S 651 mmHg 88%
    11:00 +12°C° 0 mm 1 m/S 651 mmHg 81%
    12:00 +13°C° 0 mm 1 m/S 651 mmHg 74%
    13:00 +14°C° 0 mm 2 m/S 651 mmHg 67%
    14:00 +14°C° 0 mm 2 m/S 651 mmHg 67%
    15:00 +14°C° 0 mm 2 m/S 651 mmHg 68%
    16:00 +14°C° 0 mm 2 m/S 651 mmHg 68%
    17:00 +13°C° 0 mm 1 m/S 651 mmHg 73%
    18:00 +11°C° 0 mm 1 m/S 651 mmHg 78%
    19:00 +9°C° 0 mm 0 m/S 650 mmHg 83%
    20:00 +9°C° 0 mm 0 m/S 651 mmHg 84%
    21:00 +10°C° 0 mm 1 m/S 651 mmHg 84%
    22:00 +10°C° 0 mm 1 m/S 651 mmHg 84%
    23:00 +10°C° 0 mm 1 m/S 651 mmHg 83%

    23 September, Sonntag

    Zeit Temperatur Niederschläge Wind Luftdruck Luftfeuchtigkeit
    00:00 +10°C° 0 mm 1 m/S 650 mmHg 82%
    01:00 +10°C° 0 mm 1 m/S 650 mmHg 81%
    02:00 +10°C° 0 mm 1 m/S 650 mmHg 81%
    03:00 +10°C° 0 mm 1 m/S 650 mmHg 80%
    04:00 +10°C° 0 mm 1 m/S 649 mmHg 80%
    05:00 +11°C° 0 mm 1 m/S 649 mmHg 79%
    06:00 +11°C° 0 mm 1 m/S 649 mmHg 77%
    07:00 +11°C° 0 mm 1 m/S 649 mmHg 76%
    08:00 +14°C° 0 mm 2 m/S 650 mmHg 69%
    09:00 +16°C° 0 mm 2 m/S 650 mmHg 62%
    10:00 +18°C° 0 mm 2 m/S 650 mmHg 54%
    11:00 +19°C° 0 mm 2 m/S 650 mmHg 52%
    12:00 +21°C° 0 mm 2 m/S 650 mmHg 50%
    13:00 +22°C° 0 mm 3 m/S 649 mmHg 48%
    14:00 +22°C° 0 mm 3 m/S 649 mmHg 50%
    15:00 +22°C° 0 mm 3 m/S 648 mmHg 53%
    16:00 +21°C° 0 mm 3 m/S 648 mmHg 56%
    17:00 +20°C° 0 mm 3 m/S 647 mmHg 62%
    18:00 +18°C° 0 mm 3 m/S 646 mmHg 68%
    19:00 +16°C° 0 mm 3 m/S 644 mmHg 74%
    20:00 +14°C° 0.6 mm 4 m/S 644 mmHg 77%
    21:00 +14°C° 0.6 mm 4 m/S 643 mmHg 81%
    22:00 +13°C° 0.6 mm 4 m/S 643 mmHg 85%
    23:00 +10°C° 3 mm 6 m/S 643 mmHg 84%

    24 September, Montag

    Zeit Temperatur Niederschläge Wind Luftdruck Luftfeuchtigkeit
    00:00 +9°C° 3 mm 8 m/S 643 mmHg 84%
    01:00 +6°C° 3 mm 10 m/S 643 mmHg 84%
    02:00 +5°C° 0.4 mm 9 m/S 644 mmHg 85%
    03:00 +4°C° 0.4 mm 8 m/S 645 mmHg 86%
    04:00 +2°C° 0.4 mm 7 m/S 646 mmHg 87%
    05:00 +2°C° 0.5 mm 7 m/S 647 mmHg 89%
    06:00 +2°C° 0.5 mm 6 m/S 648 mmHg 91%
    07:00 +2°C° 0.5 mm 6 m/S 649 mmHg 92%
    08:00 +2°C° 0.4 mm 5 m/S 649 mmHg 91%
    09:00 +2°C° 0.4 mm 5 m/S 650 mmHg 90%
    10:00 +2°C° 0.4 mm 5 m/S 650 mmHg 88%
    11:00 +4°C° 0.2 mm 4 m/S 651 mmHg 85%
    12:00 +4°C° 0.2 mm 4 m/S 651 mmHg 82%
    13:00 +5°C° 0.2 mm 4 m/S 652 mmHg 79%
    14:00 +5°C° 0.2 mm 3 m/S 652 mmHg 78%
    15:00 +5°C° 0.2 mm 3 m/S 652 mmHg 78%
    16:00 +5°C° 0.2 mm 3 m/S 652 mmHg 78%
    17:00 +5°C° 0.2 mm 2 m/S 652 mmHg 82%
    18:00 +4°C° 0.2 mm 2 m/S 653 mmHg 85%
    19:00 +3°C° 0.2 mm 2 m/S 653 mmHg 89%
    20:00 +4°C° 0.2 mm 1 m/S 653 mmHg 90%
    21:00 +3°C° 0.2 mm 1 m/S 654 mmHg 91%
    22:00 +3°C° 0.2 mm 1 m/S 654 mmHg 92%
    23:00 +3°C° 0.1 mm 1 m/S 654 mmHg 93%

    25 September, Dienstag

    Zeit Temperatur Niederschläge Wind Luftdruck Luftfeuchtigkeit
    00:00 +2°C° 0.1 mm 1 m/S 654 mmHg 93%
    01:00 +2°C° 0.1 mm 1 m/S 654 mmHg 94%
    02:00 +1°C° 0 mm 1 m/S 654 mmHg 94%
    03:00 +1°C° 0 mm 1 m/S 654 mmHg 94%
    04:00 0°C° 0 mm 1 m/S 654 mmHg 94%
    05:00 0°C° 0 mm 1 m/S 654 mmHg 93%
    06:00 0°C° 0 mm 1 m/S 655 mmHg 92%
    07:00 0°C° 0 mm 1 m/S 655 mmHg 91%
    08:00 +3°C° 0 mm 1 m/S 655 mmHg 81%
    09:00 +5°C° 0 mm 1 m/S 656 mmHg 71%
    10:00 +6°C° 0 mm 2 m/S 656 mmHg 60%
    11:00 +7°C° 0 mm 2 m/S 657 mmHg 55%
    12:00 +8°C° 0 mm 2 m/S 657 mmHg 51%
    13:00 +9°C° 0 mm 2 m/S 657 mmHg 46%
    14:00 +9°C° 0 mm 2 m/S 656 mmHg 48%
    15:00 +9°C° 0 mm 2 m/S 656 mmHg 50%
    16:00 +9°C° 0 mm 2 m/S 656 mmHg 52%
    17:00 +6°C° 0 mm 2 m/S 655 mmHg 61%
    18:00 +4°C° 0 mm 2 m/S 655 mmHg 70%
    19:00 +2°C° 0 mm 2 m/S 655 mmHg 79%
    20:00 +2°C° 0 mm 2 m/S 655 mmHg 79%
    21:00 +2°C° 0 mm 2 m/S 655 mmHg 78%
    22:00 +1°C° 0 mm 2 m/S 655 mmHg 78%
    23:00 +1°C° 0 mm 2 m/S 655 mmHg 74%
    Mehr zeigen